User: anonymous   Login
Location: Nitra
(0.0000°N, 18.0833°E)
Time: 23:25:20
(UTC+02:00)
Language:

Cosmos 2298 Rocket - Orbit

View from above orbital plane
View from above orbital plane
View from above satellite
View from above satellite

Ground track
Ground track

The orbit data is extracted from the following two-line orbital elements,

1 23432U 94083B   21104.59019868 -.00000024  00000-0  62595-6 0  9992
2 23432  74.0308 262.4439 0004666 140.7892 289.2283 14.33556218376313
Epoch (UTC): 14 April 2021 14:09:53
Eccentricity: 0.0004666
inclination: 74.0308°
perigee height: 776 km
apogee height: 783 km
right ascension of ascending node: 262.4439°
argument of perigee: 140.7892°
revolutions per day: 14.33556218
mean anomaly at epoch: 289.2283°
orbit number at epoch: 37631

The dashed part of the orbit path shows where the satellite is in the earth's shadow,  

DLR